Location: Sungai Apap
(2.6167°N, 113.3833°E)
Time: 14:43:53
(UTC+00:00)

SWIFT - Pass Details

Date: 25 May 2024
Orbit: 503 x 514 km, 20.6° (Epoch: 12 June)

Event Time Altitude Azimuth Distance (km) Brightness Sun altitude
Exits shadow 21:40:29 - 216° (SW) 1,843 4.5 -9.1°
Reaches altitude 10° 21:40:57 10° 213° (SSW) 1,695 4.3 -9.0°
Maximum altitude 21:44:07 23° 159° (SSE) 1,093 3.8 -8.2°
Drops below altitude 10° 21:47:16 10° 105° (ESE) 1,693 5.7 -7.5°
Sets 21:49:49 0° 90° (E) 2,576 7.2 -6.9°
